GFSNW_con_lsi_132.txt.gz
Lid_Strength_Index
3 3 3 3 5 6 7 6 8 4 5 10 11 11 9 8 8 7 7 8 9 9 9 11 11 10 9 5 7 10 10 13 14 13 8 9 12 13 14 16 16 16 14 16
3 3 3 4 5 6 8 9 7 5 6 11 11 9 7 8 8 9 8 8 8 7 9 12 9 9 6 6 8 10 9 12 14 13 11 9 10 10 13 14 16 17 16 16
3 3 3 4 5 6 9 8 9 8 8 9 9 10 9 10 7 7 7 8 7 9 9 9 10 9 6 6 7 5 6 11 14 15 13 11 12 10 10 13 16 15 15 15
3 3 3 4 4 5 7 7 9 7 10 8 9 9 8 9 10 7 8 9 8 9 12 10 10 8 8 7 5 8 10 12 12 11 9 10 10 10 10 12 13 14 15 14
5 4 4 3 4 5 7 8 8 6 8 8 8 10 11 9 9 9 10 8 8 9 10 12 12 11 10 9 8 9 10 13 12 13 9 10 11 10 10 10 11 12 12 13
5 5 4 4 4 5 8 6 5 6 8 8 9 10 8 8 8 8 7 7 9 9 9 9 10 11 10 10 9 9 10 12 14 15 11 11 14 12 11 11 11 11 15 12
5 4 4 4 4 5 8 7 7 8 10 8 8 7 7 8 9 9 8 7 9 7 7 8 9 10 11 10 10 9 11 12 13 14 13 18 12 8 8 10 10 10 10 10
3 4 4 4 4 4 7 7 7 7 10 8 7 7 7 8 9 9 7 7 6 7 8 10 12 12 12 10 8 10 10 12 13 14 15 13 11 9 9 10 12 9 10 9
3 3 3 3 4 4 7 7 6 7 8 8 6 7 7 10 10 9 8 7 6 7 10 11 13 14 12 12 10 9 9 10 12 14 15 17 12 8 7 7 14 8 8 8
3 3 3 3 3 4 6 7 7 7 8 6 6 7 8 7 8 9 9 8 8 8 11 12 13 13 10 14 14 13 12 12 13 14 15 14 9 7 6 13 13 7 7 7
2 3 3 4 3 3 6 7 6 5 6 5 4 5 8 7 8 11 10 9 8 9 11 12 12 12 11 12 11 11 12 14 14 13 16 18 7 8 11 9 8 7 7 7
2 2 3 3 3 3 4 8 4 4 4 5 4 5 5 5 6 8 9 9 9 8 11 10 10 11 11 13 14 10 13 11 12 12 12 8 7 8 6 7 7 8 7 6
3 2 3 3 3 4 4 7 7 5 5 5 6 7 5 5 5 6 9 9 6 7 7 9 10 12 11 13 13 12 10 8 11 11 10 9 8 6 6 6 6 6 5 5
3 3 2 3 3 4 4 8 6 7 5 8 7 4 5 5 5 5 6 5 6 7 8 10 11 11 10 11 10 11 9 9 10 11 10 9 7 6 5 5 5 5 4 4
3 3 2 3 3 4 5 6 6 6 5 8 7 5 6 6 5 5 4 5 6 8 10 10 11 9 9 10 11 12 8 9 11 11 8 8 7 5 4 5 5 5 5 5
3 3 3 3 4 4 9 7 5 6 4 6 9 6 7 6 5 6 5 6 6 7 8 9 8 7 9 11 14 9 7 7 7 8 6 6 6 5 4 5 4 4 4 4
3 2 3 2 4 7 8 6 4 6 5 6 9 9 6 5 6 6 6 7 7 7 9 9 8 8 9 12 13 9 7 6 6 5 5 7 6 6 4 4 3 4 3 3
3 3 3 4 4 5 8 5 4 5 4 5 10 9 7 6 8 8 6 7 7 8 9 9 8 8 9 12 9 7 6 6 6 5 5 6 5 5 5 4 4 5 5 4
3 3 3 6 7 7 5 1 3 4 4 8 9 10 11 6 8 7 7 8 9 8 10 9 8 10 12 9 8 7 7 6 6 5 5 5 5 5 4 4 5 5 5 4
4 5 5 7 5 1 2 6 7 6 6 6 9 7 9 7 8 8 8 9 10 11 9 8 11 11 8 6 6 6 5 5 5 7 7 7 6 5 6 6 5 4 5 4
5 5 5 3 1 4 6 9 10 9 10 8 7 7 8 6 8 9 8 9 9 12 10 10 11 12 8 6 6 6 5 5 5 5 5 5 5 6 5 5 4 4 4 4
5 6 4 3 5 6 8 9 10 10 11 8 8 7 7 7 5 8 8 10 10 13 8 10 13 10 7 6 5 5 5 5 5 4 5 4 4 5 5 4 4 5 5 5
3 4 5 7 7 12 11 12 11 10 8 7 8 8 8 7 7 8 9 11 11 8 11 13 11 8 7 6 5 5 5 5 4 4 4 4 4 4 4 5 5 5 5 5
5 7 12 10 11 10 10 10 9 7 6 6 8 8 8 7 9 9 11 9 9 12 14 12 9 7 7 6 5 5 6 5 5 5 5 5 5 5 5 5 5 5 5 5
6 7 12 10 8 7 7 6 6 6 5 6 7 7 8 9 9 9 9 11 12 12 12 9 7 6 6 6 6 7 6 6 6 6 5 6 6 6 5 5 4 4 4 5
6 7 9 7 8 8 7 7 8 5 6 6 6 9 10 10 9 10 11 11 13 10 9 7 6 6 6 6 6 6 5 6 6 6 6 6 6 4 4 4 4 4 4 5
7 8 7 8 7 7 7 7 6 4 7 9 9 11 10 8 10 11 9 10 9 8 7 6 6 5 6 5 5 5 4 5 4 5 6 6 5 5 4 5 4 5 4 3

GFSNW_con_lsi_135.txt.gz
Lid_Strength_Index
3 3 3 3 4 5 8 10 10 6 7 10 12 12 10 8 7 7 8 8 9 11 10 12 12 11 9 6 8 11 10 14 14 13 10 9 10 13 15 16 16 16 16 15
5 4 3 4 4 5 7 10 10 5 7 12 12 10 8 7 10 9 9 9 9 9 10 12 10 9 6 6 8 10 10 13 15 14 11 10 11 10 13 16 16 17 17 15
5 5 4 4 4 4 8 9 10 7 9 10 10 10 9 10 8 8 8 9 8 9 10 9 10 9 7 6 7 5 6 12 13 15 14 12 12 11 11 14 15 15 15 16
5 4 5 5 4 5 8 8 10 8 10 9 9 10 9 9 10 8 8 9 8 9 12 11 11 10 8 7 5 8 10 13 11 11 10 10 11 12 12 14 14 14 14 14
4 4 4 5 5 6 7 8 8 7 8 8 10 11 12 10 10 9 10 9 10 10 13 12 11 11 11 10 9 9 10 13 12 12 10 10 12 11 11 12 12 12 13 13
4 3 3 4 5 7 9 7 6 6 8 9 9 10 10 9 9 8 8 8 9 10 10 10 11 11 11 11 10 10 11 12 13 14 12 11 14 12 12 12 11 11 14 12
4 3 3 3 5 6 8 9 8 8 10 9 9 8 7 9 9 9 8 9 10 8 8 9 11 11 11 9 11 10 12 12 13 14 12 18 12 8 9 11 11 10 10 10
3 2 2 2 4 4 6 8 8 7 10 8 8 7 7 9 9 9 9 8 8 8 9 11 12 13 13 10 10 10 10 12 13 14 15 14 11 10 10 12 12 9 10 9
3 2 3 2 3 3 6 8 8 8 9 9 6 8 8 11 11 10 8 7 8 8 11 12 15 15 13 13 11 10 10 11 12 14 16 17 12 8 7 8 15 8 8 9
3 3 2 3 3 3 5 8 7 8 8 6 6 8 8 9 10 10 10 9 8 10 12 13 14 13 11 14 14 13 13 13 13 14 16 14 9 7 7 14 13 8 7 7
3 3 2 3 3 3 4 8 7 6 7 5 4 6 8 9 10 11 10 9 9 10 11 12 13 13 12 13 12 13 14 15 14 14 16 16 7 8 11 9 9 7 7 7
3 3 3 2 3 3 4 9 6 5 7 6 3 3 5 6 7 10 11 9 10 9 11 11 11 12 12 14 14 10 13 12 12 12 12 10 7 9 7 8 8 7 7 6
3 2 3 3 2 2 4 9 8 6 6 5 6 7 7 6 6 8 9 9 7 8 8 10 11 13 12 14 13 12 10 9 11 11 10 9 7 7 6 6 7 7 5 5
3 2 3 3 3 3 3 7 8 8 7 9 7 5 7 6 6 5 6 5 7 8 10 11 12 12 10 12 11 11 9 10 11 11 10 8 7 6 6 6 5 5 5 5
3 2 3 3 3 3 4 6 7 7 7 9 8 6 6 7 6 5 5 7 8 10 10 11 12 11 10 11 12 13 9 10 11 11 8 8 8 6 5 5 6 5 5 5
3 3 2 3 3 3 8 8 7 6 6 7 10 7 8 7 6 6 7 6 7 8 9 9 9 8 10 12 14 10 8 8 9 8 7 6 6 5 4 5 5 4 5 4
3 3 2 3 3 5 8 6 6 6 6 7 9 10 7 7 7 7 8 8 8 8 10 10 9 9 10 12 13 10 8 6 6 5 5 8 6 7 4 4 4 4 4 4
3 4 4 3 4 5 8 6 5 7 7 6 11 9 8 7 8 9 7 8 8 9 10 9 9 9 10 11 10 9 8 6 6 5 6 7 6 5 5 4 4 5 5 4
3 3 3 5 6 9 6 1 4 5 5 8 10 10 11 7 8 7 8 9 10 9 11 10 8 11 13 9 9 8 6 6 6 5 6 6 6 6 6 5 5 5 5 4
3 6 7 7 5 1 2 6 7 7 6 6 9 8 10 8 9 8 8 10 11 11 10 9 11 11 9 8 7 7 6 5 6 7 8 7 7 6 6 5 5 4 4 4
4 6 6 4 2 5 6 9 10 9 10 9 7 8 9 7 9 9 9 10 10 12 10 10 12 12 9 8 6 7 6 6 5 5 5 6 6 6 6 5 4 4 4 4
5 5 4 4 5 7 9 9 10 10 11 9 8 7 7 7 7 8 9 10 10 13 9 11 13 10 9 7 6 6 7 5 6 5 5 5 5 5 6 5 5 5 5 5
3 4 5 6 8 12 11 12 11 11 8 8 8 9 8 8 7 9 9 11 11 8 11 13 11 9 7 7 6 6 6 5 5 5 5 4 5 4 4 6 6 6 6 6
6 7 12 10 11 10 10 10 9 7 6 7 9 10 8 8 9 9 11 10 9 12 14 12 10 8 7 7 6 6 6 6 5 5 5 5 5 5 5 5 6 6 6 6
7 7 12 10 8 8 7 6 7 6 6 6 7 8 8 9 9 9 9 12 12 12 12 9 9 7 7 7 7 6 7 7 6 6 6 6 5 5 6 6 6 6 6 5
6 7 9 8 9 8 7 7 7 6 6 6 6 9 10 10 9 10 11 12 13 10 8 8 7 7 7 7 7 7 7 7 7 7 6 6 6 6 6 6 6 6 5 5
7 8 6 7 8 8 7 7 6 5 7 9 8 11 11 9 11 12 10 11 9 8 7 6 6 7 7 7 7 7 7 7 7 7 7 8 6 6 6 7 7 5 4 5

GFSNW_con_lsi_138.txt.gz
Lid_Strength_Index
4 5 5 5 5 5 7 10 11 7 8 10 13 12 10 7 7 8 9 9 10 10 10 12 12 12 9 6 8 11 11 13 13 13 10 10 12 14 14 15 15 15 14 15
5 5 5 5 6 5 7 10 10 6 8 12 12 10 8 7 9 10 9 9 9 9 11 13 11 10 7 7 8 10 11 13 15 13 11 10 11 11 15 16 15 16 17 16
5 5 5 5 6 6 7 10 9 8 10 11 10 12 10 10 8 9 8 9 8 10 11 11 12 10 7 6 7 5 7 12 13 15 14 12 13 12 11 15 15 15 15 15
4 4 4 5 5 6 9 9 10 8 10 9 11 10 10 8 11 9 9 9 9 10 12 13 12 10 10 8 6 7 9 13 12 12 11 11 12 12 12 14 13 14 14 15
4 4 4 4 4 6 8 9 8 8 9 8 10 10 11 8 11 10 10 10 10 11 14 12 13 12 12 12 10 10 11 12 13 12 10 11 12 11 12 12 12 13 13 14
4 4 3 3 3 6 11 10 7 7 9 9 10 10 9 10 9 9 8 9 11 11 11 10 12 13 11 12 11 10 11 12 14 15 11 12 14 12 12 12 11 12 14 12
4 4 4 2 3 4 6 10 9 8 10 9 9 8 8 8 10 10 9 10 11 10 9 9 11 11 10 9 10 11 11 12 13 14 13 18 11 8 9 11 10 10 10 10
5 4 3 2 2 3 5 7 9 8 10 8 8 8 8 10 10 10 9 9 9 10 9 11 13 13 13 11 10 11 11 11 14 15 16 13 11 9 10 11 12 9 10 9
4 4 3 2 2 3 4 6 9 9 9 10 6 8 8 11 12 11 10 8 9 9 12 12 15 15 15 13 11 11 11 11 12 15 16 18 12 8 6 7 14 8 8 9
4 4 4 2 3 3 4 6 8 10 9 7 7 9 9 9 11 11 11 10 7 10 13 14 14 14 11 15 14 14 13 13 14 14 16 13 8 7 6 14 13 7 7 8
5 4 3 2 3 2 4 7 7 9 8 7 5 4 8 9 11 11 10 10 9 11 11 13 13 14 12 13 12 13 14 14 14 14 16 15 7 8 11 9 8 7 6 7
5 5 3 3 3 3 3 8 7 7 9 7 4 3 2 5 8 10 11 10 10 9 11 12 12 12 13 14 14 11 13 12 12 12 12 10 8 8 7 8 7 7 6 6
5 5 4 3 2 3 3 6 8 8 8 5 5 5 7 8 8 7 9 9 8 9 9 11 12 12 12 14 13 12 10 10 11 11 10 9 8 6 7 7 7 7 5 5
5 5 4 3 2 3 3 4 8 9 9 9 7 5 8 7 7 6 7 6 8 9 10 12 12 13 11 13 11 11 10 10 10 11 9 8 7 6 6 6 5 5 5 5
5 5 4 2 2 3 4 3 4 7 8 9 8 5 6 8 6 6 7 8 9 10 10 11 12 12 10 12 12 13 9 10 11 12 8 8 8 6 5 5 6 5 5 5
5 5 4 3 2 2 5 9 5 5 8 7 10 7 8 7 7 7 7 8 9 10 10 11 10 8 9 12 13 11 10 9 9 9 8 7 6 5 4 5 5 4 4 4
5 4 4 4 3 4 8 8 6 5 7 7 9 10 8 7 8 8 9 9 9 9 10 10 9 10 11 12 13 9 8 7 8 6 6 7 6 6 4 4 3 3 4 4
4 4 4 4 3 4 7 6 4 5 7 6 10 10 9 7 9 9 9 9 9 9 10 9 9 9 10 11 10 9 8 6 6 5 6 6 6 5 4 4 4 5 5 4
4 4 4 6 8 10 7 2 3 6 5 8 9 10 11 7 9 9 8 9 10 9 11 11 8 11 13 9 9 8 7 6 6 5 5 5 5 6 5 4 5 5 5 4
4 5 7 9 7 2 2 5 7 6 6 5 9 8 9 8 9 10 9 10 11 12 10 9 11 11 9 8 8 7 6 5 5 7 7 7 7 6 6 5 5 4 4 4
4 5 6 5 2 5 7 8 10 9 10 8 7 8 9 7 9 9 9 11 11 12 11 10 12 12 9 8 7 7 6 5 5 5 5 5 5 5 5 5 5 4 4 4
5 5 5 4 5 7 9 10 9 10 11 9 8 8 7 7 6 8 9 11 10 13 10 11 13 10 9 8 7 6 6 5 5 5 5 5 5 4 5 5 4 4 3 3
4 4 6 7 7 12 11 13 11 11 9 9 8 8 7 7 7 8 9 11 12 9 11 13 10 9 8 7 7 6 6 5 5 5 5 5 5 4 4 4 4 4 4 4
6 7 12 10 11 10 10 10 9 8 8 8 9 9 9 9 8 8 11 9 9 12 14 13 9 8 7 6 6 6 6 6 5 5 5 4 4 4 4 4 4 5 5 5
7 7 12 10 8 8 8 7 8 7 6 7 9 8 8 9 10 9 10 12 12 12 12 9 8 8 7 7 7 6 6 7 6 6 5 5 5 5 6 5 5 5 5 5
6 7 9 8 9 8 8 8 7 6 6 6 7 9 10 10 10 11 12 12 13 11 8 8 8 8 8 7 7 7 6 7 7 6 6 5 5 5 6 6 6 6 5 5
7 9 6 8 8 8 7 6 7 6 7 9 8 10 11 9 11 12 10 11 9 8 7 7 7 7 7 7 7 7 7 7 7 7 6 6 6 6 6 6 6 5 5 5

GFSNW_con_lsi_141.txt.gz
Lid_Strength_Index
5 5 5 5 5 6 7 7 6 4 5 7 8 7 7 7 6 6 6 6 7 8 9 9 9 10 8 5 6 8 7 8 11 10 8 7 8 9 9 12 14 12 12 14
5 5 5 5 6 6 7 7 5 3 5 8 7 7 7 6 6 8 7 7 6 7 8 10 9 8 6 5 6 7 7 9 12 11 9 8 9 8 9 11 10 13 13 13
4 5 5 5 5 5 6 7 7 5 6 7 7 8 8 7 6 7 6 6 6 7 8 7 9 8 6 6 6 4 5 9 11 12 12 10 11 11 9 9 11 11 11 13
4 5 5 5 5 6 6 6 7 6 8 7 7 7 8 8 8 7 6 7 7 8 9 9 9 8 7 6 5 6 6 10 10 10 10 10 11 12 10 9 10 11 11 13
4 5 4 4 5 6 3 6 7 5 6 7 7 8 8 8 7 7 7 7 8 8 8 8 9 9 8 9 7 7 7 10 9 11 9 9 11 10 10 11 11 11 11 12
4 5 4 4 5 5 6 5 5 5 8 7 8 7 7 8 7 7 7 6 7 8 7 6 6 7 8 8 9 8 8 9 10 12 10 10 12 11 10 11 10 10 12 10
4 4 4 4 4 4 5 6 6 6 8 8 7 7 7 7 7 7 7 7 7 7 6 6 5 6 6 6 7 7 8 8 9 11 11 15 10 7 8 10 9 9 9 9
4 4 4 4 4 3 4 4 6 5 9 7 7 7 7 7 7 7 7 7 7 5 5 6 8 7 7 7 8 8 6 8 11 12 12 11 10 8 9 10 11 8 9 8
5 4 4 4 4 4 4 4 5 6 7 7 5 7 6 8 7 7 7 6 6 5 6 7 11 11 10 10 9 7 7 7 9 11 14 15 11 7 6 7 12 8 8 8
4 4 4 4 4 4 3 4 4 6 7 5 5 6 6 7 7 7 7 6 5 5 7 9 10 10 9 11 11 10 9 9 10 11 11 10 7 7 6 12 11 7 6 7
5 5 4 4 4 4 3 4 4 5 6 5 4 4 6 6 6 7 7 6 6 6 8 8 9 9 9 10 9 9 10 10 11 11 12 12 6 7 9 7 6 6 6 6
5 5 5 4 4 4 3 6 4 4 6 5 4 4 3 2 3 6 8 5 6 5 7 8 8 9 8 9 11 7 10 8 9 9 9 7 5 6 5 5 6 5 5 5
5 5 5 4 4 4 3 4 4 5 6 4 4 4 4 2 1 3 5 5 5 5 4 6 7 9 7 10 9 9 8 6 8 9 7 7 6 5 4 4 5 4 4 4
6 5 5 5 4 4 3 4 4 5 6 7 5 1 3 4 5 5 4 4 5 5 5 5 6 7 7 8 8 8 7 7 8 8 6 6 6 5 4 4 4 4 4 4
5 5 5 5 4 4 3 3 4 4 5 8 6 3 4 5 3 3 4 4 5 5 6 6 7 6 6 7 7 8 6 7 8 8 5 5 5 4 3 4 4 4 4 4
5 5 5 5 5 4 4 6 4 3 3 6 9 3 4 5 4 4 4 4 5 5 5 6 6 5 6 8 9 6 5 5 4 5 4 4 4 4 3 4 4 4 4 3
5 5 5 5 5 4 6 6 5 4 3 5 8 7 5 4 4 5 5 5 6 4 6 6 6 6 5 7 9 6 4 4 4 4 4 5 4 4 3 3 3 3 3 3
5 5 5 5 4 4 5 3 4 4 5 4 9 8 7 5 5 6 5 5 5 5 6 5 6 6 6 10 6 5 5 4 4 4 3 4 3 3 3 3 3 4 4 3
5 4 4 4 5 7 6 3 3 3 4 7 7 9 9 5 6 5 5 5 7 5 6 6 6 8 12 7 6 5 5 5 5 4 4 4 4 4 4 3 4 4 4 3
5 5 6 8 6 5 2 4 6 5 5 5 8 5 8 5 6 6 6 6 7 10 7 6 8 8 6 5 4 4 4 4 4 5 6 5 5 4 4 4 3 3 3 3
5 6 6 3 3 3 5 7 7 7 8 6 6 6 7 4 7 8 6 8 7 10 9 8 10 10 7 4 4 3 3 3 3 3 3 3 3 4 3 3 3 3 3 3
6 5 4 3 4 5 8 9 7 8 9 6 7 6 5 5 4 7 7 9 8 11 7 9 11 8 5 5 4 3 3 3 3 3 3 3 3 3 3 3 3 2 2 2
3 4 5 6 6 12 11 11 10 9 6 5 6 7 6 6 5 7 8 10 10 6 10 11 9 6 5 4 4 4 3 3 3 3 3 2 2 2 2 3 2 2 2 2
5 7 11 9 10 9 9 8 8 6 6 6 6 6 7 6 8 8 10 9 9 12 13 12 8 6 5 4 4 4 4 3 3 3 3 3 3 3 2 2 2 2 3 2
6 7 12 10 7 6 6 5 6 5 4 5 6 6 6 7 9 8 9 11 12 11 12 9 6 5 4 4 4 4 3 3 3 3 3 3 3 3 3 2 2 2 2 2
6 6 8 7 7 7 6 6 6 4 5 5 6 8 9 9 8 10 11 10 12 10 8 6 4 4 4 4 4 3 3 3 3 3 3 3 3 3 3 2 2 2 2 2
7 7 5 6 7 7 6 5 5 4 6 8 7 10 10 8 10 11 9 10 8 7 6 5 4 4 4 4 3 3 3 3 3 3 3 3 2 2 2 3 2 2 2 1

GFSNW_con_lsi_144.txt.gz
Lid_Strength_Index
4 4 4 5 6 6 5 4 7 2 2 5 4 6 6 7 5 4 5 5 6 7 7 8 8 8 7 5 5 7 5 7 9 9 6 6 6 8 8 12 13 10 11 13
4 4 4 4 6 6 3 3 3 2 2 7 6 5 6 5 5 5 6 6 5 6 7 9 7 7 5 4 5 6 6 8 11 10 8 7 8 8 7 8 8 12 13 13
3 4 4 5 6 6 4 4 6 4 4 4 5 6 6 6 5 5 5 5 5 6 7 6 8 7 5 5 5 4 4 8 9 15 11 8 10 9 8 8 11 11 10 11
3 4 4 4 5 6 4 3 5 4 6 5 5 6 6 6 6 5 4 6 6 6 7 7 7 6 6 5 5 5 6 10 8 8 8 8 10 9 9 9 8 10 9 10
3 3 3 4 5 6 3 5 6 4 4 6 6 7 7 6 6 6 6 6 6 6 7 6 7 6 6 6 5 6 5 9 8 10 8 9 10 9 9 9 9 9 9 12
3 3 3 3 5 5 4 3 1 4 6 6 6 6 6 6 5 5 5 5 5 6 5 4 4 4 4 5 6 7 7 8 9 12 9 9 13 10 9 9 9 9 11 10
3 3 3 4 4 5 3 4 3 5 7 6 6 6 6 6 5 5 5 4 5 5 3 3 3 4 4 5 4 5 7 8 8 10 9 14 10 7 7 9 8 8 9 8
4 3 3 3 4 4 4 4 4 4 7 5 6 6 6 5 4 5 5 5 4 3 4 6 7 7 7 6 5 5 5 7 9 12 12 10 9 8 8 9 10 7 8 7
4 4 4 3 4 4 4 4 3 4 6 6 5 6 5 5 5 5 5 4 3 4 4 6 9 10 8 9 8 5 6 6 8 9 13 15 10 7 5 6 11 6 6 7
5 4 4 4 4 4 5 4 2 3 5 3 4 5 5 4 5 5 4 4 4 3 5 7 8 8 7 10 9 9 8 7 9 10 10 9 7 6 5 12 11 6 6 6
4 4 4 4 4 4 5 3 2 3 4 3 3 3 4 4 4 5 4 5 5 5 6 7 7 8 7 8 8 8 8 9 8 9 10 12 5 6 9 7 5 5 5 5
4 5 5 4 4 4 4 4 2 1 4 3 2 2 1 2 2 4 3 4 4 3 5 5 4 7 7 7 10 6 9 6 8 8 9 6 5 5 4 4 5 5 5 4
5 5 5 5 4 4 4 5 4 3 4 4 3 3 1 0 1 0 4 3 3 4 3 3 4 7 5 8 8 7 6 5 6 7 6 6 5 4 4 4 4 4 4 3
5 5 5 5 5 4 4 5 3 3 3 6 4 1 2 1 3 1 1 2 2 2 2 4 5 6 5 6 6 7 6 6 6 6 5 5 4 4 4 4 3 3 3 3
5 5 5 5 5 5 4 4 4 2 4 6 5 2 1 2 2 2 2 2 3 3 4 5 5 4 5 4 5 6 5 5 7 6 4 4 4 3 3 3 3 3 3 4
5 5 5 5 5 5 5 8 3 2 3 5 7 2 3 3 1 2 2 2 2 2 3 3 3 4 5 6 7 4 3 3 3 4 3 3 3 2 2 3 3 3 3 3
5 5 5 5 6 5 6 6 4 4 2 4 6 6 3 3 2 2 2 2 2 2 3 4 4 5 5 6 8 5 4 3 3 3 3 4 3 4 2 2 3 3 2 2
4 5 5 5 5 6 6 3 4 3 3 3 7 6 5 3 4 5 2 4 3 3 3 4 5 5 5 7 4 4 3 3 3 3 2 3 2 2 2 2 2 3 3 3
4 5 5 5 6 6 4 3 3 2 3 7 6 8 8 3 4 3 3 3 6 3 5 5 5 6 10 5 4 4 4 4 4 3 3 3 3 3 3 3 3 3 3 3
4 5 7 8 6 3 2 2 4 5 4 4 7 4 6 4 5 5 5 4 6 8 6 5 6 7 4 3 3 3 3 3 3 4 5 4 3 3 3 3 2 2 3 2
4 6 6 3 2 2 3 6 7 6 7 5 5 5 6 3 6 6 4 6 6 9 7 7 8 8 5 3 3 2 2 2 2 2 2 2 2 3 3 3 2 2 2 2
5 5 4 3 4 6 8 8 6 7 8 5 6 5 5 4 2 5 6 7 7 10 6 8 10 6 4 4 4 3 2 2 2 2 2 2 2 2 2 2 2 2 2 1
3 4 5 5 6 12 10 11 8 8 5 4 5 6 5 4 4 6 7 9 9 5 9 10 8 4 4 4 3 3 2 2 2 2 2 2 2 1 2 2 2 1 2 1
5 6 12 8 9 8 7 7 6 5 4 4 4 5 6 5 7 8 11 7 7 11 12 10 7 4 4 3 3 3 3 3 3 2 2 2 2 2 1 1 1 1 2 2
6 6 11 8 6 5 4 3 4 3 3 4 5 5 5 7 8 7 8 10 12 10 10 7 5 3 3 3 3 3 3 3 2 2 2 2 2 2 2 1 1 1 1 2
5 6 7 6 6 6 6 5 5 3 3 4 5 6 8 8 7 9 10 10 11 8 6 4 3 3 4 3 3 3 2 2 2 2 2 2 2 2 2 1 1 1 2 2
6 6 4 5 5 6 5 4 4 3 5 7 6 8 9 5 8 9 7 8 6 5 4 4 4 4 4 3 3 3 2 2 2 2 2 2 1 1 2 3 2 2 1 1